Aérodrome :







RETROUVEZ-NOUS SUR...

 
LOGIN :

S'inscrire | Disclaimer

   EN    FR    IT 

 









Légende :    VFR   VFR Marginal   IFR   IFR Intensif   IFR Très Intensif
Visi : 
Plafond : 
>= 8 km
>= 3000ft
5 à 8 km
1000 à 3000 ft
1500m à 5 km
500 à 1000 ft
800 à 1500m
200 à 500 ft
< 800m
< 200 ft
Symboles :   Orages  Brouillard  Fortes neiges  Fortes précipitations  Vent > 20 kt






- Altitude de l'aérodrome : 38 ft
- Code IATA : TAB


TTCP - Crown Point Int.

DERNIER METAR :
  • 070900Z 10006KT 9999 -SHRA VCSH FEW016 27/24 Q1015 NOSIG RMK VCSH SE S

METARs EXPIRÉS :
  • 070800Z 07003KT 9999 VCSH FEW016 27/24 Q1015 NOSIG RMK VCSH NW

TAF TAF TTCP
Valide du 07 à 06h jusqu'au 08 à 06h UTC


070400Z 0706/0806 11005KT 9999 FEW016
PROB30
TEMPO 0705/0710 5000 SHRA FEW010CB BKN016
BECMG 0712/0714 11012KT SCT020
BECMG 0723/0801 10005KT FEW016
FIR TTZP / Amérique du Nord



MET'MAP, la Météo Aéronautique d'un coup d'oeil ! - Copyright ORBIFLY Décembre 2007 - Disclaimer

ORBIFLY MET'MAP TEAM :

Programmation & Développement : Alexandra Zaïnal
Sur une idée originale de : Baudouin d'Aumeries
Assistance à la programmation : Marc-Olivier Méhu
Soutien technique & logistique : Manuel Goepfert

Contact : metmap@orbifly.com




SOURCES & CREDITS :

   NOAA